When you browse on this site, cookies collect data to enhance your experience and personalize the content and advertising you see.
Visit our Privacy Policy to learn more. By continuing to use the site, you agree to this use of cookies and data.
  • In United Kingdom
  • List of Countries
  • For 7 days
  • Water Temperature
  • Satellite Maps
  • Weather Map
  • Weather Widgets
  • user-avatar
    Login

    Hourly Weather Eisenstadt

    Today, 20 July, Saturday

    Time Temperature Precipitation Wind Pressure Humidity
    00:00 +18°C° 0 mm 2 mps 723 mmHg 82%
    01:00 +18°C° 0 mm 2 mps 723 mmHg 83%
    02:00 +19°C° 0 mm 1 mps 723 mmHg 83%
    03:00 +18°C° 0 mm 1 mps 723 mmHg 84%
    04:00 +18°C° 0 mm 1 mps 723 mmHg 85%
    05:00 +19°C° 0 mm 1 mps 723 mmHg 81%
    06:00 +21°C° 0 mm 1 mps 723 mmHg 77%
    07:00 +20°C° 0 mm 0 mps 724 mmHg 73%
    08:00 +24°C° 0 mm 1 mps 724 mmHg 67%
    09:00 +26°C° 0 mm 1 mps 724 mmHg 60%
    10:00 +27°C° 0 mm 2 mps 724 mmHg 54%
    11:00 +28°C° 0 mm 2 mps 724 mmHg 50%
    12:00 +29°C° 0 mm 3 mps 724 mmHg 47%
    13:00 +31°C° 0 mm 3 mps 724 mmHg 43%
    14:00 +31°C° 0 mm 3 mps 723 mmHg 43%
    15:00 +31°C° 0 mm 3 mps 723 mmHg 42%
    16:00 +31°C° 0 mm 3 mps 723 mmHg 42%
    17:00 +29°C° 0 mm 3 mps 723 mmHg 50%
    18:00 +28°C° 0 mm 2 mps 723 mmHg 57%
    19:00 +26°C° 0 mm 2 mps 723 mmHg 64%
    20:00 +25°C° 0 mm 2 mps 723 mmHg 67%
    21:00 +24°C° 0 mm 2 mps 723 mmHg 69%
    22:00 +21°C° 0 mm 2 mps 724 mmHg 72%
    23:00 +22°C° 0 mm 1 mps 724 mmHg 71%

    Tomorrow, 21 July, Sunday

    Time Temperature Precipitation Wind Pressure Humidity
    00:00 +22°C° 0 mm 1 mps 724 mmHg 70%
    01:00 +22°C° 0 mm 1 mps 724 mmHg 69%
    02:00 +22°C° 0 mm 1 mps 724 mmHg 69%
    03:00 +21°C° 0 mm 1 mps 724 mmHg 69%
    04:00 +21°C° 0 mm 1 mps 724 mmHg 69%
    05:00 +23°C° 0 mm 1 mps 724 mmHg 67%
    06:00 +24°C° 0 mm 1 mps 724 mmHg 65%
    07:00 +25°C° 0 mm 1 mps 725 mmHg 63%
    08:00 +27°C° 0 mm 2 mps 725 mmHg 57%
    09:00 +28°C° 0 mm 2 mps 726 mmHg 52%
    10:00 +30°C° 0 mm 3 mps 726 mmHg 46%
    11:00 +30°C° 0.2 mm 3 mps 726 mmHg 47%
    12:00 +30°C° 0.2 mm 4 mps 726 mmHg 48%
    13:00 +30°C° 0.2 mm 5 mps 726 mmHg 49%
    14:00 +27°C° 2.4 mm 4 mps 726 mmHg 62%
    15:00 +23°C° 2.4 mm 4 mps 725 mmHg 75%
    16:00 +19°C° 2.4 mm 4 mps 725 mmHg 88%
    17:00 +19°C° 1.9 mm 3 mps 725 mmHg 88%
    18:00 +20°C° 1.9 mm 2 mps 726 mmHg 89%
    19:00 +21°C° 1.9 mm 1 mps 726 mmHg 89%
    20:00 +20°C° 0 mm 1 mps 726 mmHg 87%
    21:00 +19°C° 0 mm 2 mps 727 mmHg 86%
    22:00 +18°C° 0 mm 2 mps 727 mmHg 84%
    23:00 +18°C° 0 mm 2 mps 727 mmHg 84%

    Day after tomorrow, 22 July, Monday

    Time Temperature Precipitation Wind Pressure Humidity
    00:00 +18°C° 0 mm 2 mps 727 mmHg 85%
    01:00 +18°C° 0 mm 3 mps 728 mmHg 85%
    02:00 +18°C° 0 mm 2 mps 728 mmHg 85%
    03:00 +17°C° 0 mm 2 mps 728 mmHg 85%
    04:00 +17°C° 0 mm 2 mps 728 mmHg 85%
    05:00 +18°C° 0 mm 2 mps 728 mmHg 82%
    06:00 +20°C° 0 mm 2 mps 728 mmHg 78%
    07:00 +21°C° 0 mm 2 mps 729 mmHg 75%
    08:00 +23°C° 0 mm 2 mps 729 mmHg 68%
    09:00 +25°C° 0 mm 2 mps 729 mmHg 60%
    10:00 +26°C° 0 mm 2 mps 729 mmHg 53%
    11:00 +27°C° 0 mm 2 mps 729 mmHg 50%
    12:00 +27°C° 0 mm 2 mps 729 mmHg 48%
    13:00 +28°C° 0 mm 2 mps 729 mmHg 45%
    14:00 +28°C° 0 mm 2 mps 729 mmHg 45%
    15:00 +28°C° 0 mm 2 mps 728 mmHg 45%
    16:00 +28°C° 0 mm 3 mps 728 mmHg 44%
    17:00 +26°C° 0 mm 2 mps 728 mmHg 52%
    18:00 +25°C° 0 mm 2 mps 728 mmHg 59%
    19:00 +23°C° 0 mm 1 mps 728 mmHg 66%
    20:00 +22°C° 0 mm 1 mps 728 mmHg 69%
    21:00 +21°C° 0 mm 1 mps 728 mmHg 71%
    22:00 +20°C° 0 mm 1 mps 728 mmHg 73%
    23:00 +19°C° 0 mm 1 mps 728 mmHg 74%

    23 July, Tuesday

    Time Temperature Precipitation Wind Pressure Humidity
    00:00 +19°C° 0 mm 1 mps 728 mmHg 74%
    01:00 +19°C° 0 mm 1 mps 728 mmHg 75%
    02:00 +18°C° 0 mm 1 mps 728 mmHg 76%
    03:00 +18°C° 0 mm 1 mps 728 mmHg 77%
    04:00 +18°C° 0 mm 1 mps 727 mmHg 78%
    05:00 +19°C° 0 mm 1 mps 728 mmHg 73%
    06:00 +21°C° 0 mm 1 mps 728 mmHg 68%
    07:00 +22°C° 0 mm 1 mps 728 mmHg 64%
    08:00 +24°C° 0 mm 2 mps 728 mmHg 58%
    09:00 +25°C° 0 mm 2 mps 728 mmHg 52%
    10:00 +27°C° 0 mm 3 mps 728 mmHg 46%
    11:00 +27°C° 0 mm 3 mps 728 mmHg 45%
    12:00 +28°C° 0 mm 3 mps 727 mmHg 43%
    13:00 +29°C° 0 mm 4 mps 727 mmHg 42%
    14:00 +29°C° 0 mm 4 mps 727 mmHg 42%
    15:00 +29°C° 0 mm 4 mps 726 mmHg 42%
    16:00 +29°C° 0 mm 4 mps 726 mmHg 43%
    17:00 +27°C° 0 mm 3 mps 726 mmHg 50%
    18:00 +26°C° 0 mm 3 mps 726 mmHg 56%
    19:00 +24°C° 0 mm 2 mps 725 mmHg 63%
    20:00 +23°C° 0 mm 2 mps 726 mmHg 67%
    21:00 +21°C° 0 mm 1 mps 726 mmHg 70%
    22:00 +20°C° 0 mm 1 mps 726 mmHg 74%
    23:00 +20°C° 0 mm 1 mps 726 mmHg 75%

    24 July, Wednesday

    Time Temperature Precipitation Wind Pressure Humidity
    00:00 +19°C° 0 mm 1 mps 726 mmHg 77%
    01:00 +19°C° 0 mm 1 mps 726 mmHg 79%
    02:00 +19°C° 0 mm 1 mps 726 mmHg 79%
    03:00 +19°C° 0 mm 1 mps 725 mmHg 80%
    04:00 +18°C° 0 mm 1 mps 725 mmHg 81%
    05:00 +20°C° 0 mm 1 mps 725 mmHg 76%
    06:00 +21°C° 0 mm 1 mps 726 mmHg 72%
    07:00 +23°C° 0 mm 2 mps 726 mmHg 67%
    08:00 +24°C° 0 mm 2 mps 726 mmHg 62%
    09:00 +26°C° 0 mm 2 mps 726 mmHg 57%
    10:00 +27°C° 0 mm 3 mps 726 mmHg 53%
    11:00 +28°C° 0 mm 3 mps 726 mmHg 50%
    12:00 +29°C° 0 mm 3 mps 726 mmHg 47%
    13:00 +30°C° 0 mm 3 mps 726 mmHg 44%
    14:00 +30°C° 0 mm 3 mps 725 mmHg 43%
    15:00 +30°C° 0 mm 3 mps 725 mmHg 43%
    16:00 +30°C° 0 mm 3 mps 725 mmHg 43%
    17:00 +28°C° 0 mm 3 mps 725 mmHg 50%
    18:00 +26°C° 0 mm 2 mps 725 mmHg 58%
    19:00 +25°C° 0 mm 2 mps 724 mmHg 66%
    20:00 +24°C° 0 mm 1 mps 725 mmHg 69%
    21:00 +22°C° 0 mm 1 mps 725 mmHg 73%
    22:00 +21°C° 0 mm 1 mps 725 mmHg 76%
    23:00 +21°C° 0 mm 1 mps 725 mmHg 77%

    25 July, Thursday

    Time Temperature Precipitation Wind Pressure Humidity
    00:00 +21°C° 0 mm 1 mps 725 mmHg 79%
    01:00 +20°C° 0 mm 1 mps 725 mmHg 80%
    02:00 +20°C° 0 mm 1 mps 725 mmHg 81%
    03:00 +20°C° 0 mm 1 mps 725 mmHg 83%
    04:00 +19°C° 0 mm 1 mps 725 mmHg 84%
    05:00 +21°C° 0 mm 1 mps 725 mmHg 79%
    06:00 +20°C° 0 mm 0 mps 726 mmHg 74%
    07:00 +22°C° 0 mm 0 mps 726 mmHg 69%
    08:00 +25°C° 0 mm 1 mps 726 mmHg 64%
    09:00 +27°C° 0 mm 1 mps 726 mmHg 58%
    10:00 +28°C° 0 mm 2 mps 726 mmHg 53%
    11:00 +29°C° 0 mm 2 mps 726 mmHg 49%
    12:00 +30°C° 0 mm 2 mps 726 mmHg 46%
    13:00 +31°C° 0 mm 2 mps 726 mmHg 42%
    14:00 +31°C° 0 mm 2 mps 726 mmHg 42%
    15:00 +31°C° 0 mm 2 mps 725 mmHg 42%
    16:00 +31°C° 0 mm 2 mps 725 mmHg 42%
    17:00 +29°C° 0 mm 2 mps 725 mmHg 48%
    18:00 +28°C° 0 mm 1 mps 725 mmHg 55%
    19:00 +26°C° 0 mm 1 mps 725 mmHg 62%
    20:00 +25°C° 0 mm 1 mps 725 mmHg 66%
    21:00 +23°C° 0 mm 1 mps 725 mmHg 69%
    22:00 +22°C° 0 mm 1 mps 725 mmHg 73%
    23:00 +22°C° 0 mm 1 mps 725 mmHg 74%
    Show more